Flag for Chile Weather past 2 weeks in Osorno, Chile

Now
54 °F

Rain. Overcast.


Feels Like: 48 °F
Forecast: 52 / 57 °F
Wind: 21 mph from North

Location: Puerto Montt Airport

Current Time: Aug 1, 2014 at 1:02:47 PM

Latest Report: Aug 1, 2014 at 12:00 PM


Visibility: 2 mi

Pressure: 29.50 "Hg

Humidity: 88%

Dew point: 50 °F

Location of OsornoLocation

Historic Weather in Osorno — Graph

°F

Osorno temperature yesterday

Maximum temperature yesterday: 54 °F (at 5:00 PM)
Minimum temperature yesterday: 48 °F (at 1:00 AM)
Average temperature yesterday: 51 °F

Past Weeks' High & Low Weather Summary

 TemperatureHumidityPressure
High55 °F (Jul 19, 2:00 PM)100% (Jul 19, 2:00 AM)30.51 "Hg (Jul 19, 2:00 AM)
Low32 °F (Jul 22, 4:00 AM)66% (Jul 25, 2:00 PM)29.50 "Hg (Aug 1, 12:00 PM)
Average47 °F90%30.02 "Hg
* Reported Jul 17 12:00 Noon — Aug 1 12:00 Noon, Osorno, Weather by CustomWeather, © 2014

Note: Actual official high and low records may vary slightly from our data, if they occured in-between our weather recording intervals... More about our weather records

Advertising

Osorno weather history for previous 24 hours

 ConditionsComfort  
Time TempWeatherWind HumidityBarometerVisibility
12:00 PM
Aug 1
54 °FRain. Overcast.21 mph88%29.50 "Hg1 mi
11:00 AM52 °FRain. Overcast.23 mph94%29.53 "Hg1 mi
10:00 AM52 °FLight rain. Mostly cloudy.25 mph88%29.53 "Hg2 mi
9:00 AM52 °FLight rain. Mostly cloudy.24 mph88%29.59 "Hg2 mi
8:00 AM52 °FLight rain. More clouds than sun.20 mph88%29.65 "Hg5 mi
7:00 AM52 °FLight rain. More clouds than sun.17 mph88%29.68 "Hg3 mi
6:00 AM52 °FMostly cloudy.14 mph88%29.71 "HgN/A
5:00 AM52 °FMostly cloudy.12 mph88%29.71 "HgN/A
4:00 AM50 °FClear.8 mph94%29.77 "Hg10 mi
3:00 AM50 °FPassing clouds.7 mph94%29.77 "HgN/A
2:00 AM50 °FFog.7 mph94%29.80 "Hg4 mi
1:00 AM48 °FOvercast.5 mph100%29.80 "HgN/A
12:00 AM50 °FOvercast.5 mph94%29.77 "HgN/A
11:00 PM
Jul 31
52 °FOvercast.5 mph94%29.77 "HgN/A
10:00 PM52 °FOvercast.3 mph94%29.74 "HgN/A
9:00 PM54 °FOvercast.6 mph88%29.74 "HgN/A
8:00 PM54 °FOvercast.5 mph88%29.71 "HgN/A
7:00 PM54 °FOvercast.5 mph94%29.68 "HgN/A
6:00 PM54 °FOvercast.7 mph94%29.65 "HgN/A
5:00 PM54 °FMostly cloudy.12 mph94%29.62 "HgN/A
4:00 PM52 °FRain. Mostly cloudy.13 mph94%29.62 "Hg2 mi
3:00 PM52 °FRain. Mostly cloudy.15 mph94%29.59 "Hg2 mi
2:00 PM52 °FLight rain. Mostly cloudy.15 mph94%29.62 "Hg4 mi
1:00 PM52 °FRain. Mostly cloudy.13 mph94%29.68 "Hg2 mi
Weather by CustomWeather, © 2014

See weather overviewHow to use our weather pages